Weather History for Glens Falls, NY

Change the Weather History Date:

Wednesday, October 3, 2012

  Actual Average Record
Temperature  
Mean Temperature 61 °F 51 °F  
Max Temperature 63 °F 63 °F 80 °F (1967)
Min Temperature 58 °F 39 °F 28 °F (2003)
Degree Days  
Heating Degree Days 4 14  
Month to date heating degree days 19 40  
Since 1 July heating degree days 248 325  
Cooling Degree Days 0 0  
Month to date cooling degree days 0 0  
Year to date cooling degree days 533 351  
Growing Degree Days 10 (Base 50)    
Moisture  
Dew Point 60 °F    
Average Humidity 97    
Maximum Humidity 100    
Minimum Humidity 93    
Precipitation  
Precipitation 0.14 in 0.11 in 0.73 in (1979)
Month to date precipitation 0.23 0.35  
Year to date precipitation 26.26 29.54  
Sea Level Pressure  
Sea Level Pressure 30.06 in    
Wind  
Wind Speed 1 mph (NNE)    
Max Wind Speed 6 mph    
Max Gust Speed 7 mph    
Visibility 4 miles    
Events Rain    
T = Trace of Precipitation, MM = Missing Value Source: NWS Daily Summary

Daily Weather History Graph

Daily Weather History Graph

Search for Another Location

Airport:

Trip Planner

Search our weather history database for the weather conditions in past years. The results will help you decide how hot, cold, wet, or windy it might be!

Date:

Astronomy

Oct. 03, 2012 Rise Set
Actual Time 6:54 AM EDT 6:31 PM EDT
Civil Twilight 6:26 AM EDT 6:59 PM EDT
Nautical Twilight 5:53 AM EDT 7:32 PM EDT
Astronomical Twilight 5:19 AM EDT 8:05 PM EDT
Moon 8:14 PM EDT (10/3) 10:22 AM EDT (10/3)
Length of Visible Light 12h 33m
Length of Day
11h 36m
Waning Gibbous, 89% of the Moon is Illuminated
Oct 3
Waning Gibbous
Oct 8
Last Quarter
Oct 15
New
Oct 21
First Quarter
Oct 29
Full

Hourly Weather History & Observations

Time (EDT) Temp. Dew Point Humidity Pressure Visibility Wind Dir Wind Speed Gust Speed Precip Events Conditions
12:49 AM 57.2 °F 57.2 °F 100% 30.03 in 2.5 mi Calm Calm - N/A   Overcast
12:53 AM 57.9 °F 57.9 °F 100% 30.04 in 2.5 mi Calm Calm - N/A   Overcast
1:04 AM 57.2 °F 57.2 °F 100% 30.04 in 3.0 mi Calm Calm - N/A   Overcast
1:19 AM 57.2 °F 57.2 °F 100% 30.04 in 2.5 mi North 3.5 mph - N/A   Overcast
1:28 AM 57.2 °F 57.2 °F 100% 30.03 in 2.5 mi North 3.5 mph - N/A   Overcast
1:53 AM 57.9 °F 57.9 °F 100% 30.04 in 2.5 mi Calm Calm - N/A   Overcast
2:21 AM 57.2 °F 57.2 °F 100% 30.03 in 2.5 mi Calm Calm - N/A   Overcast
2:33 AM 57.2 °F 57.2 °F 100% 30.04 in 3.0 mi Calm Calm - N/A   Overcast
2:53 AM 57.9 °F 57.9 °F 100% 30.04 in 2.5 mi Calm Calm - N/A   Overcast
3:06 AM 57.2 °F 57.2 °F 100% 30.03 in 2.5 mi Calm Calm - N/A   Overcast
3:35 AM 57.2 °F 57.2 °F 100% 30.03 in 3.0 mi Calm Calm - N/A   Overcast
3:53 AM 57.9 °F 57.9 °F 100% 30.04 in 2.5 mi Calm Calm - N/A   Overcast
4:14 AM 57.2 °F 57.2 °F 100% 30.03 in 3.0 mi NNE 4.6 mph - 0.02 in Rain Light Rain
4:28 AM 57.2 °F 57.2 °F 100% 30.02 in 3.0 mi ENE 3.5 mph - 0.02 in   Overcast
4:48 AM 57.2 °F 57.2 °F 100% 30.03 in 3.0 mi Calm Calm - 0.02 in   Overcast
4:53 AM 57.9 °F 57.9 °F 100% 30.04 in 3.0 mi Calm Calm - 0.02 in Rain Light Rain
5:02 AM 57.2 °F 57.2 °F 100% 30.03 in 3.0 mi Calm Calm - 0.00 in Rain Light Rain
5:34 AM 59.0 °F 59.0 °F 100% 30.03 in 4.0 mi Calm Calm - 0.01 in Rain Light Rain
5:46 AM 59.0 °F 57.2 °F 94% 30.03 in 3.0 mi Calm Calm - 0.02 in Rain Light Rain
5:53 AM 59.0 °F 57.9 °F 96% 30.04 in 3.0 mi Calm Calm - 0.02 in Rain Light Rain
6:05 AM 59.0 °F 57.2 °F 94% 30.04 in 4.0 mi Calm Calm - 0.00 in Rain Light Rain
6:53 AM 57.9 °F 57.9 °F 100% 30.05 in 2.5 mi NNW 3.5 mph - 0.01 in Rain Light Rain
7:02 AM 57.2 °F 57.2 °F 100% 30.04 in 3.0 mi North 3.5 mph - 0.00 in Rain Light Rain
7:10 AM 59.0 °F 57.2 °F 94% 30.04 in 2.0 mi NNW 3.5 mph - 0.01 in Rain Light Rain
7:17 AM 59.0 °F 57.2 °F 94% 30.05 in 1.8 mi Calm Calm - N/A Rain Light Rain
7:26 AM 59.0 °F 59.0 °F 100% 30.05 in 1.5 mi Calm Calm - N/A Rain Light Rain
7:33 AM 59.0 °F 59.0 °F 100% 30.05 in 1.2 mi Calm Calm - 0.04 in Rain Rain
7:44 AM 59.0 °F 59.0 °F 100% 30.05 in 2.0 mi Calm Calm - 0.04 in Rain Light Rain
7:50 AM 59.0 °F 59.0 °F 100% 30.05 in 3.0 mi Calm Calm - 0.04 in Rain Light Rain
7:53 AM 59.0 °F 59.0 °F 100% 30.06 in 3.0 mi Calm Calm - 0.05 in   Overcast
8:00 AM 59.0 °F 59.0 °F 100% 30.06 in 4.0 mi Calm Calm - N/A   Overcast
8:08 AM 59.0 °F 59.0 °F 100% 30.06 in 5.0 mi Calm Calm - 0.00 in Rain Light Rain
8:22 AM 59.0 °F 59.0 °F 100% 30.06 in 1.8 mi Calm Calm - 0.00 in Rain Light Rain
8:46 AM 59.0 °F 59.0 °F 100% 30.07 in 2.0 mi Calm Calm - 0.01 in   Overcast
8:53 AM 59.0 °F 59.0 °F 100% 30.07 in 2.5 mi Calm Calm - 0.01 in   Overcast
9:02 AM 59.0 °F 59.0 °F 100% 30.06 in 3.0 mi NNE 3.5 mph - N/A   Overcast
9:13 AM 59.0 °F 59.0 °F 100% 30.06 in 3.0 mi Calm Calm - N/A   Overcast
9:31 AM 60.8 °F 59.0 °F 94% 30.06 in 2.5 mi NE 3.5 mph - N/A   Overcast
9:53 AM 60.1 °F 59.0 °F 96% 30.07 in 1.5 mi East 3.5 mph - N/A   Overcast
10:53 AM 60.1 °F 60.1 °F 100% 30.08 in 1.2 mi Calm Calm - 0.01 in Rain Light Rain
11:53 AM 61.0 °F 60.1 °F 97% 30.08 in 2.5 mi Calm Calm - 0.02 in   Overcast
12:31 PM 60.8 °F 60.8 °F 100% 30.07 in 6.0 mi Calm Calm - 0.00 in   Overcast
12:53 PM 62.1 °F 61.0 °F 96% 30.07 in 10.0 mi Calm Calm - 0.00 in   Overcast
1:08 PM 62.6 °F 60.8 °F 94% 30.06 in 10.0 mi Calm Calm - N/A   Overcast
1:53 PM 62.1 °F 62.1 °F 100% 30.06 in 2.5 mi NE 3.5 mph - N/A   Overcast
2:01 PM 62.6 °F 60.8 °F 94% 30.05 in 1.5 mi NNE 3.5 mph - N/A   Overcast
2:13 PM 62.6 °F 62.6 °F 100% 30.06 in 2.5 mi Calm Calm - N/A   Overcast
2:25 PM 62.6 °F 62.6 °F 100% 30.05 in 3.0 mi Calm Calm - N/A   Overcast
2:35 PM 62.6 °F 62.6 °F 100% 30.06 in 2.0 mi Calm Calm - N/A   Overcast
2:53 PM 62.1 °F 62.1 °F 100% 30.06 in 2.5 mi ENE 3.5 mph - N/A   Overcast
3:12 PM 62.6 °F 62.6 °F 100% 30.06 in 4.0 mi Calm Calm - N/A   Overcast
3:53 PM 63.0 °F 62.1 °F 97% 30.06 in 4.0 mi Calm Calm - N/A   Overcast
4:05 PM 62.6 °F 62.6 °F 100% 30.06 in 3.0 mi Calm Calm - N/A   Overcast
4:53 PM 63.0 °F 63.0 °F 100% 30.07 in 9.0 mi ENE 3.5 mph - N/A   Overcast
5:53 PM 63.0 °F 63.0 °F 100% 30.08 in 8.0 mi Calm Calm - N/A   Overcast
6:07 PM 62.6 °F 62.6 °F 100% 30.08 in 8.0 mi NE 3.5 mph - N/A   Overcast
6:53 PM 63.0 °F 63.0 °F 100% 30.09 in 7.0 mi Calm Calm - N/A   Overcast
7:20 PM 62.6 °F 62.6 °F 100% 30.09 in 8.0 mi Calm Calm - N/A   Overcast
7:51 PM 62.6 °F 62.6 °F 100% 30.10 in 7.0 mi Calm Calm - N/A   Overcast
7:53 PM 63.0 °F 63.0 °F 100% 30.10 in 7.0 mi Calm Calm - N/A   Overcast
8:12 PM 62.6 °F 62.6 °F 100% 30.10 in 8.0 mi North 3.5 mph - N/A   Overcast
8:19 PM 62.6 °F 62.6 °F 100% 30.10 in 8.0 mi Calm Calm - N/A   Overcast
8:33 PM 62.6 °F 62.6 °F 100% 30.10 in 8.0 mi Calm Calm - N/A   Overcast
8:50 PM 62.6 °F 62.6 °F 100% 30.09 in 7.0 mi Calm Calm - N/A   Overcast
8:53 PM 63.0 °F 63.0 °F 100% 30.10 in 7.0 mi Calm Calm - N/A   Overcast
9:53 PM 63.0 °F 62.1 °F 97% 30.12 in 7.0 mi Calm Calm - N/A   Overcast
10:32 PM 62.6 °F 62.6 °F 100% 30.12 in 6.0 mi Calm Calm - N/A   Overcast
10:53 PM 62.1 °F 62.1 °F 100% 30.12 in 5.0 mi Calm Calm - N/A   Overcast
11:26 PM 62.6 °F 62.6 °F 100% 30.11 in 6.0 mi Calm Calm - N/A   Overcast
11:36 PM 62.6 °F 62.6 °F 100% 30.11 in 5.0 mi Calm Calm - N/A   Overcast
11:53 PM 63.0 °F 63.0 °F 100% 30.12 in 5.0 mi Calm Calm - N/A   Overcast